FW7740 Weather Reports


Display with metric or nautical units.
time (UTC)temp
F
wind
direction
speed
MPH
gust
MPH
rain 1hr
in
rain 24hr
in
rain mn
in
humidity
%
barometer
mb
20260508202606 80 295 0.0 0.0 0.00 0.00 0.00 35 1009.3
20260508202104 80 199 6.0 7.0 0.00 0.00 0.00 33 1009.6
20260508201600 80 219 3.0 5.0 0.00 0.00 0.00 33 1010.1
20260508201057 80 259 3.0 3.0 0.00 0.00 0.00 37 1010.1
20260508200554 79 183 6.0 7.0 0.00 0.00 0.00 35 1010.1
20260508200049 80 185 3.0 7.0 0.00 0.00 0.00 34 1010.1
20260508195546 80 205 1.0 1.0 0.00 0.00 0.00 35 1010.1
20260508195042 79 272 0.0 0.0 0.00 0.00 0.00 36 1010.1
20260508194540 79 6 2.0 3.0 0.00 0.00 0.00 36 1010.4
20260508194037 79 227 3.0 3.0 0.00 0.00 0.00 34 1010.1
20260508193533 78 237 4.0 5.0 0.00 0.00 0.00 37 1010.4
20260508193030 79 173 3.0 3.0 0.00 0.00 0.00 35 1010.8
20260508192527 78 236 4.0 6.0 0.00 0.00 0.00 36 1010.8
20260508192024 78 206 2.0 3.0 0.00 0.00 0.00 40 1010.8
20260508191521 78 180 4.0 5.0 0.00 0.00 0.00 39 1010.8
20260508191017 78 156 6.0 6.0 0.00 0.00 0.00 37 1010.8
20260508190515 79 125 0.0 1.0 0.00 0.00 0.00 38 1011.1
20260508190010 78 155 5.0 6.0 0.00 0.00 0.00 38 1011.1
20260508185508 78 154 3.0 5.0 0.00 0.00 0.00 40 1010.8
20260508185006 77 160 3.0 3.0 0.00 0.00 0.00 41 1011.1
20260508184504 77 167 5.0 7.0 0.00 0.00 0.00 39 1011.4
20260508183959 76 203 3.0 3.0 0.00 0.00 0.00 42 1011.4
20260508183456 76 302 0.0 0.0 0.00 0.00 0.00 43 1011.8
20260508182957 75 320 1.0 0.0 0.00 0.00 0.00 42 1011.8
20260508182454 75 249 3.0 3.0 0.00 0.00 0.00 46 1011.8
20260508181950 74 186 3.0 5.0 0.00 0.00 0.00 46 1011.8
20260508181446 74 312 0.0 0.0 0.00 0.00 0.00 46 1011.8
20260508180944 74 237 2.0 2.0 0.00 0.00 0.00 46 1011.8
20260508180440 74 310 0.0 0.0 0.00 0.00 0.00 44 1011.8
20260508175936 75 175 4.0 6.0 0.00 0.00 0.00 45 1012.1
20260508175433 75 339 1.0 1.0 0.00 0.00 0.00 45 1012.1
20260508174931 74 254 1.0 1.0 0.00 0.00 0.00 46 1012.5
20260508174428 74 179 3.0 3.0 0.00 0.00 0.00 46 1012.1
20260508173925 73 255 1.0 2.0 0.00 0.00 0.00 48 1012.1
20260508173422 73 191 1.0 1.0 0.00 0.00 0.00 48 1012.5
20260508172918 72 289 1.0 1.0 0.00 0.00 0.00 52 1012.1
20260508172416 73 22 3.0 5.0 0.00 0.00 0.00 47 1012.5
20260508171911 73 127 3.0 3.0 0.00 0.00 0.00 48 1012.8
20260508171408 73 204 3.0 5.0 0.00 0.00 0.00 48 1012.8
20260508170905 73 255 1.0 2.0 0.00 0.00 0.00 49 1012.8
20260508170402 73 269 2.0 2.0 0.00 0.00 0.00 48 1012.8
20260508165858 73 303 1.0 2.0 0.00 0.00 0.00 48 1012.8
20260508165357 73 137 2.0 2.0 0.00 0.00 0.00 49 1012.8
20260508164852 71 164 3.0 5.0 0.00 0.00 0.00 50 1012.8
20260508164350 72 156 7.0 7.0 0.00 0.00 0.00 48 1013.5
20260508163847 72 299 1.0 1.0 0.00 0.00 0.00 50 1013.5
20260508163345 70 348 1.0 1.0 0.00 0.00 0.00 51 1013.5
20260508162840 70 86 0.0 0.0 0.00 0.00 0.00 51 1013.5
20260508162337 70 247 0.0 0.0 0.00 0.00 0.00 51 1013.5
20260508161834 71 165 2.0 3.0 0.00 0.00 0.00 52 1013.5
20260508161332 71 232 1.0 1.0 0.00 0.00 0.00 50 1013.5
20260508160829 71 43 4.0 3.0 0.00 0.00 0.00 50 1013.5
20260508160327 70 241 2.0 1.0 0.00 0.00 0.00 49 1013.8
20260508155818 70 160 4.0 5.0 0.00 0.00 0.00 49 1013.8
20260508155315 69 171 5.0 6.0 0.00 0.00 0.00 51 1013.8
20260508154812 68 154 0.0 0.0 0.00 0.00 0.00 53 1013.8
20260508154310 69 169 8.0 10.0 0.00 0.00 0.00 50 1013.5
20260508153806 69 196 3.0 6.0 0.00 0.00 0.00 50 1013.8
20260508153304 69 184 2.0 2.0 0.00 0.00 0.00 53 1013.8
20260508152759 68 212 1.0 1.0 0.00 0.00 0.00 51 1013.8
20260508152256 68 218 1.0 1.0 0.00 0.00 0.00 52 1014.6
20260508151752 68 138 5.0 5.0 0.00 0.00 0.00 51 1014.6
20260508151249 69 84 3.0 3.0 0.00 0.00 0.00 49 1014.6
20260508150745 69 214 3.0 3.0 0.00 0.00 0.00 51 1014.6
20260508150242 68 258 1.0 1.0 0.00 0.00 0.00 51 1014.2
20260508145738 68 17 0.0 1.0 0.00 0.00 0.00 53 1014.6
20260508145235 68 260 3.0 3.0 0.00 0.00 0.00 54 1014.2
20260508144732 67 160 1.0 1.0 0.00 0.00 0.00 52 1014.6
20260508144230 66 5 2.0 3.0 0.00 0.00 0.00 53 1014.2
20260508143727 66 163 3.0 3.0 0.00 0.00 0.00 52 1014.6
20260508143224 67 207 2.0 2.0 0.00 0.00 0.00 52 1014.6
20260508142720 68 202 1.0 2.0 0.00 0.00 0.00 51 1014.2
20260508142217 67 173 4.0 5.0 0.00 0.00 0.00 52 1014.6
20260508141714 66 53 4.0 5.0 0.00 0.00 0.00 53 1014.6
20260508141211 65 136 2.0 3.0 0.00 0.00 0.00 55 1014.6
20260508140708 64 178 2.0 3.0 0.00 0.00 0.00 55 1014.6
20260508140205 63 154 1.0 2.0 0.00 0.00 0.00 57 1014.6
20260508135701 63 82 3.0 2.0 0.00 0.00 0.00 59 1014.6
20260508135156 63 186 0.0 0.0 0.00 0.00 0.00 58 1014.2
20260508134653 62 243 3.0 3.0 0.00 0.00 0.00 60 1014.2
20260508134150 61 338 1.0 1.0 0.00 0.00 0.00 66 1014.6
20260508133647 60 318 0.0 0.0 0.00 0.00 0.00 69 1014.2
20260508133144 59 352 2.0 2.0 0.00 0.00 0.00 68 1014.2
20260508132642 59 4 0.0 0.0 0.00 0.00 0.00 69 1014.2
20260508132139 59 301 1.0 1.0 0.00 0.00 0.00 71 1014.2
20260508131634 58 114 1.0 1.0 0.00 0.00 0.00 71 1014.2
20260508131131 58 290 0.0 0.0 0.00 0.00 0.00 74 1014.2
20260508130628 57 256 0.0 0.0 0.00 0.00 0.00 74 1013.8
20260508130125 57 265 1.0 1.0 0.00 0.00 0.00 75 1013.8
20260508125620 56 328 0.0 0.0 0.00 0.00 0.00 77 1013.8
20260508125118 55 328 0.0 0.0 0.00 0.00 0.00 78 1014.2
20260508124616 55 329 0.0 1.0 0.00 0.00 0.00 78 1014.2
20260508124112 54 321 0.0 0.0 0.00 0.00 0.00 80 1014.2
20260508123611 54 321 0.0 0.0 0.00 0.00 0.00 80 1014.2
20260508123108 53 321 0.0 0.0 0.00 0.00 0.00 81 1013.8
20260508122604 52 326 0.0 0.0 0.00 0.00 0.00 84 1013.8
20260508122101 51 326 0.0 0.0 0.00 0.00 0.00 86 1013.8
20260508121559 51 326 0.0 0.0 0.00 0.00 0.00 88 1013.8
20260508121057 50 326 0.0 0.0 0.00 0.00 0.00 91 1013.8
20260508120554 49 326 0.0 0.0 0.00 0.00 0.00 94 1013.8
20260508120053 49 283 0.0 0.0 0.00 0.00 0.00 95 1013.8
20260508115549 48 283 0.0 0.0 0.00 0.00 0.00 95 1013.8
20260508115046 48 283 0.0 0.0 0.00 0.00 0.00 96 1013.8
20260508114543 47 283 0.0 0.0 0.00 0.00 0.00 96 1013.5
20260508114039 47 283 0.0 0.0 0.00 0.00 0.00 96 1013.8
20260508113537 46 283 0.0 0.0 0.00 0.00 0.00 96 1013.8
20260508113035 46 283 0.0 0.0 0.00 0.00 0.00 96 1013.8
20260508112531 45 283 0.0 0.0 0.00 0.00 0.00 96 1013.8
20260508112027 45 283 0.0 0.0 0.00 0.00 0.00 96 1013.8
20260508111524 45 283 0.0 0.0 0.00 0.00 0.00 96 1013.5
20260508111022 45 283 0.0 0.0 0.00 0.00 0.00 96 1013.5
20260508110520 45 283 0.0 0.0 0.00 0.00 0.00 96 1013.8
20260508110015 45 283 0.0 0.0 0.00 0.00 0.00 96 1013.5
20260508105510 45 283 0.0 0.0 0.00 0.00 0.00 96 1013.8
20260508105008 45 283 0.0 0.0 0.00 0.00 0.00 96 1013.5
20260508104506 45 283 0.0 0.0 0.00 0.00 0.00 96 1013.8
20260508104002 45 283 0.0 0.0 0.00 0.00 0.00 96 1013.8
20260508103459 45 283 0.0 0.0 0.00 0.00 0.00 96 1013.5
20260508102955 44 283 0.0 0.0 0.00 0.00 0.00 96 1013.5
20260508102454 44 283 0.0 0.0 0.00 0.00 0.00 96 1013.8
20260508101951 44 283 1.0 1.0 0.00 0.00 0.00 96 1013.8
20260508101449 44 283 0.0 0.0 0.00 0.00 0.00 96 1013.5
20260508100945 44 283 0.0 0.0 0.00 0.00 0.00 96 1013.5
20260508100444 44 283 0.0 0.0 0.00 0.00 0.00 96 1013.8
20260508095940 44 283 0.0 0.0 0.00 0.00 0.00 96 1013.8
20260508095438 44 283 0.0 0.0 0.00 0.00 0.00 96 1014.2
20260508094934 44 283 0.0 0.0 0.00 0.00 0.00 96 1013.8
20260508094430 44 283 0.0 0.0 0.00 0.00 0.00 96 1013.8
20260508093927 44 283 0.0 0.0 0.00 0.00 0.00 96 1014.2
20260508093425 44 283 0.0 0.0 0.00 0.00 0.00 96 1013.8
20260508092922 44 283 0.0 0.0 0.00 0.00 0.00 96 1013.8
20260508092420 44 283 0.0 0.0 0.00 0.00 0.00 96 1013.8
20260508091918 44 283 0.0 0.0 0.00 0.00 0.00 96 1013.8
20260508091415 44 283 0.0 0.0 0.00 0.00 0.00 95 1013.8
20260508090912 44 283 0.0 0.0 0.00 0.00 0.00 95 1014.2
20260508090411 44 283 0.0 0.0 0.00 0.00 0.00 95 1014.2
20260508085911 44 283 0.0 0.0 0.00 0.00 0.00 95 1013.8
20260508085409 44 283 0.0 0.0 0.00 0.00 0.00 95 1014.2
20260508084905 44 283 0.0 0.0 0.00 0.00 0.00 95 1014.2
20260508084402 44 283 0.0 0.0 0.00 0.00 0.00 95 1014.2
20260508083900 44 283 0.0 0.0 0.00 0.00 0.00 95 1014.2
20260508083357 44 283 0.0 0.0 0.00 0.00 0.00 95 1014.2
20260508082856 44 283 0.0 0.0 0.00 0.00 0.00 95 1014.6
20260508082354 44 283 0.0 0.0 0.00 0.00 0.00 95 1014.2
20260508081852 44 283 0.0 0.0 0.00 0.00 0.00 95 1014.2
20260508081348 44 283 0.0 0.0 0.00 0.00 0.00 95 1014.2
20260508080845 44 283 0.0 0.0 0.00 0.00 0.00 95 1014.2
20260508080343 44 283 0.0 0.0 0.00 0.00 0.00 95 1014.2
20260508075839 44 283 0.0 0.0 0.00 0.00 0.00 95 1014.2
20260508075336 44 283 0.0 0.0 0.00 0.00 0.00 95 1014.6
20260508074834 44 283 0.0 0.0 0.00 0.00 0.00 95 1014.2
20260508074331 44 283 0.0 0.0 0.00 0.00 0.00 94 1014.6
20260508073828 44 283 0.0 0.0 0.00 0.00 0.00 94 1014.2
20260508073326 44 283 0.0 0.0 0.00 0.00 0.00 94 1014.6
20260508072822 44 283 0.0 0.0 0.00 0.00 0.00 94 1014.6
20260508072319 44 283 0.0 0.0 0.00 0.00 0.00 94 1014.6
20260508071816 44 283 0.0 0.0 0.00 0.00 0.00 94 1014.6
20260508071314 44 283 0.0 0.0 0.00 0.00 0.00 94 1014.6
20260508070811 44 283 0.0 0.0 0.00 0.00 0.00 93 1014.6
20260508070310 44 283 0.0 0.0 0.00 0.00 0.00 93 1014.6
20260508065807 45 283 0.0 0.0 0.00 0.00 0.00 93 1014.9
20260508065307 45 283 0.0 0.0 0.00 0.00 0.00 93 1014.9
20260508064803 45 283 0.0 0.0 0.00 0.00 0.00 94 1014.9
20260508064300 45 282 0.0 0.0 0.00 0.00 0.00 94 1014.9
20260508063757 45 283 0.0 0.0 0.00 0.00 0.00 94 1014.9
20260508063256 45 283 0.0 0.0 0.00 0.00 0.00 94 1015.3
20260508062752 45 283 0.0 0.0 0.00 0.00 0.00 93 1015.3
20260508062250 45 283 0.0 0.0 0.00 0.00 0.00 93 1014.9
20260508061746 45 283 0.0 0.0 0.00 0.00 0.00 93 1015.3
20260508061243 45 283 0.0 0.0 0.00 0.00 0.00 93 1015.6
20260508060740 45 283 0.0 0.0 0.00 0.00 0.00 93 1015.3
20260508060238 45 283 0.0 0.0 0.00 0.00 0.00 93 1015.6
20260508055733 45 283 0.0 0.0 0.00 0.00 0.00 93 1015.6
20260508055231 45 283 0.0 0.0 0.00 0.00 0.00 93 1015.3
20260508054727 46 283 0.0 0.0 0.00 0.00 0.00 92 1015.3
20260508054225 46 283 0.0 0.0 0.00 0.00 0.00 93 1015.6
20260508053721 46 283 0.0 0.0 0.00 0.00 0.00 93 1015.6
20260508053219 46 283 0.0 0.0 0.00 0.00 0.00 92 1015.6
20260508052716 46 283 0.0 0.0 0.00 0.00 0.00 92 1015.6
20260508052213 46 283 0.0 0.0 0.00 0.00 0.00 92 1015.3
20260508051709 46 283 0.0 0.0 0.00 0.00 0.00 91 1015.6
20260508051205 46 283 0.0 0.0 0.00 0.00 0.00 91 1015.6
20260508050701 46 283 0.0 0.0 0.00 0.00 0.00 91 1015.6
20260508050159 47 283 0.0 0.0 0.00 0.00 0.00 91 1015.3
20260508045654 47 283 0.0 0.0 0.00 0.00 0.00 91 1015.3
20260508045153 47 283 0.0 0.0 0.00 0.00 0.00 91 1015.6
20260508044650 47 283 0.0 0.0 0.00 0.00 0.00 91 1015.9
20260508044146 47 283 0.0 0.0 0.00 0.00 0.00 91 1015.6
20260508043642 47 283 0.0 0.0 0.00 0.00 0.00 90 1015.6
20260508043140 47 283 0.0 0.0 0.00 0.00 0.00 90 1015.9
20260508042636 47 283 0.0 0.0 0.00 0.00 0.00 90 1015.6
20260508042134 48 282 0.0 0.0 0.00 0.00 0.00 89 1015.9
20260508041630 48 283 0.0 0.0 0.00 0.00 0.00 89 1016.3
20260508041127 48 283 0.0 0.0 0.00 0.00 0.00 89 1016.3
20260508040623 48 282 1.0 1.0 0.00 0.00 0.00 88 1016.3
20260508040121 48 281 1.0 1.0 0.00 0.00 0.00 88 1016.3
20260508035618 48 284 0.0 0.0 0.00 0.00 0.00 88 1015.9
20260508035115 48 291 0.0 0.0 0.00 0.00 0.00 88 1016.3
20260508034612 48 292 1.0 1.0 0.00 0.00 0.00 88 1016.6
20260508034109 48 294 0.0 0.0 0.00 0.00 0.00 88 1016.3
20260508033606 48 294 2.0 1.0 0.00 0.00 0.00 88 1016.3
20260508033105 48 309 0.0 0.0 0.00 0.00 0.00 88 1016.3
20260508032601 48 311 0.0 0.0 0.00 0.00 0.00 88 1016.3
20260508032059 49 311 0.0 0.0 0.00 0.00 0.00 88 1016.3
20260508031555 49 311 0.0 0.0 0.00 0.00 0.00 87 1016.3
20260508031051 50 311 0.0 0.0 0.00 0.00 0.00 86 1016.3
20260508030548 50 311 0.0 0.0 0.00 0.00 0.00 86 1015.9
20260508030046 50 310 0.0 0.0 0.00 0.00 0.00 85 1015.9
20260508025542 50 322 0.0 0.0 0.00 0.00 0.00 84 1015.9
20260508025039 50 322 0.0 0.0 0.00 0.00 0.00 85 1015.9
20260508024535 50 323 0.0 0.0 0.00 0.00 0.00 85 1015.9
20260508024033 50 323 0.0 0.0 0.00 0.00 0.00 85 1016.3
20260508023529 51 323 0.0 0.0 0.00 0.00 0.00 84 1015.6
20260508023026 51 323 0.0 0.0 0.00 0.00 0.00 84 1015.6
20260508022522 51 323 0.0 0.0 0.00 0.00 0.00 83 1015.6
20260508022019 51 323 0.0 0.0 0.00 0.00 0.00 82 1015.3
20260508021515 51 323 0.0 0.0 0.00 0.00 0.00 81 1015.3
20260508021011 52 323 0.0 0.0 0.00 0.00 0.00 80 1015.3
20260508020509 52 323 0.0 0.0 0.00 0.00 0.00 79 1015.3
20260508020006 52 323 0.0 0.0 0.00 0.00 0.00 78 1015.3
20260508015503 53 323 0.0 0.0 0.00 0.00 0.00 77 1015.3
20260508015000 53 323 0.0 0.0 0.00 0.00 0.00 76 1015.3
20260508014456 54 323 0.0 0.0 0.00 0.00 0.00 76 1015.3
20260508013952 54 323 0.0 0.0 0.00 0.00 0.00 73 1015.3
20260508013448 55 323 0.0 0.0 0.00 0.00 0.00 71 1015.3
20260508012946 55 323 0.0 0.0 0.00 0.00 0.00 69 1015.3
20260508012443 56 323 0.0 0.0 0.00 0.00 0.00 69 1015.3
20260508011940 56 323 0.0 0.0 0.00 0.00 0.00 68 1014.9
20260508011438 57 323 0.0 0.0 0.00 0.00 0.00 66 1015.3
20260508010936 58 323 0.0 0.0 0.00 0.00 0.00 63 1014.9
20260508010432 58 323 0.0 0.0 0.00 0.00 0.00 60 1014.9
20260508005930 59 323 0.0 0.0 0.00 0.00 0.00 58 1014.9
20260508005427 60 323 0.0 0.0 0.00 0.00 0.00 57 1014.9
20260508004923 60 323 0.0 0.0 0.00 0.00 0.00 54 1014.9
20260508004419 61 323 0.0 0.0 0.00 0.00 0.00 54 1014.6
20260508003916 61 323 0.0 0.0 0.00 0.00 0.00 52 1014.6
20260508003413 62 323 0.0 0.0 0.00 0.00 0.00 50 1014.6
20260508002910 62 323 0.0 0.0 0.00 0.00 0.00 48 1014.6
20260508002406 62 323 0.0 0.0 0.00 0.00 0.00 48 1014.6
20260508001902 63 323 0.0 0.0 0.00 0.00 0.00 46 1014.2
20260508001358 63 323 0.0 0.0 0.00 0.00 0.00 46 1014.6
20260508000855 63 306 0.0 0.0 0.00 0.00 0.00 46 1014.6
20260508000351 64 294 0.0 0.0 0.00 0.00 0.00 45 1014.6
20260507235848 64 193 2.0 2.0 0.00 0.00 0.00 43 1014.6
20260507235346 64 301 0.0 0.0 0.00 0.00 0.00 46 1014.9
20260507234843 64 291 0.0 0.0 0.00 0.00 0.00 44 1014.6
20260507234339 64 302 0.0 0.0 0.00 0.00 0.00 43 1014.6
20260507233835 65 291 2.0 2.0 0.00 0.00 0.00 42 1014.6
20260507233333 65 309 1.0 1.0 0.00 0.00 0.00 43 1014.6
20260507232831 65 339 1.0 1.0 0.00 0.00 0.00 41 1014.9
20260507232327 65 342 0.0 0.0 0.00 0.00 0.00 44 1014.9
20260507231825 65 278 1.0 2.0 0.00 0.00 0.00 43 1014.9
20260507231321 65 296 1.0 1.0 0.00 0.00 0.00 43 1014.9
20260507230818 65 297 0.0 0.0 0.00 0.00 0.00 42 1014.9
20260507230316 66 308 1.0 1.0 0.00 0.00 0.00 40 1014.9
20260507225815 66 303 0.0 0.0 0.00 0.00 0.00 40 1014.9
20260507225311 66 234 4.0 5.0 0.00 0.00 0.00 39 1015.3
20260507224807 66 288 1.0 1.0 0.00 0.00 0.00 39 1015.3
20260507224304 67 282 1.0 2.0 0.00 0.00 0.00 38 1015.3
20260507223800 66 287 2.0 2.0 0.00 0.00 0.00 39 1015.3
20260507223257 67 334 0.0 0.0 0.00 0.00 0.00 40 1015.3
20260507222754 67 289 1.0 2.0 0.00 0.00 0.00 38 1015.3
20260507222250 67 343 2.0 3.0 0.00 0.00 0.00 38 1015.3
20260507221748 67 313 0.0 1.0 0.00 0.00 0.00 39 1015.3
20260507221244 67 162 4.0 5.0 0.00 0.00 0.00 37 1015.6
20260507220740 67 189 3.0 3.0 0.00 0.00 0.00 36 1015.6
20260507220238 68 282 1.0 1.0 0.00 0.00 0.00 36 1015.3
20260507215734 68 19 2.0 3.0 0.00 0.00 0.00 36 1015.6
20260507215232 68 27 1.0 1.0 0.00 0.00 0.00 36 1015.6
20260507214729 68 236 2.0 3.0 0.00 0.00 0.00 34 1015.6
20260507214226 68 238 2.0 2.0 0.00 0.00 0.00 37 1015.6
20260507213721 68 111 1.0 3.0 0.00 0.00 0.00 34 1015.6
20260507213219 69 173 3.0 2.0 0.00 0.00 0.00 35 1015.3
20260507212714 68 62 4.0 6.0 0.00 0.00 0.00 34 1015.6
20260507212211 69 180 4.0 5.0 0.00 0.00 0.00 34 1015.6
20260507211708 69 25 1.0 1.0 0.00 0.00 0.00 34 1015.6
20260507211204 68 239 1.0 1.0 0.00 0.00 0.00 35 1015.9
20260507210701 69 286 4.0 7.0 0.00 0.00 0.00 33 1015.9
20260507210158 69 284 0.0 0.0 0.00 0.00 0.00 36 1015.6
20260507205654 69 331 1.0 1.0 0.00 0.00 0.00 34 1015.9
20260507205151 69 133 4.0 3.0 0.00 0.00 0.00 33 1016.3
20260507204647 68 72 3.0 3.0 0.00 0.00 0.00 33 1015.9
20260507204145 69 251 1.0 2.0 0.00 0.00 0.00 33 1016.3
20260507203643 69 142 2.0 2.0 0.00 0.00 0.00 33 1016.3
20260507203140 68 29 2.0 2.0 0.00 0.00 0.00 33 1016.3